Location: Izdebno
(52.6670°N, 16.2170°E)
Time: 03:12:11
(UTC+02:00)

Transit 2A - Pass Details

Date: 26 February 2024
Orbit: 596 x 956 km, 66.7° (Epoch: 21 April)

Event Time Altitude Azimuth Distance (km) Brightness Sun altitude
Rises 05:28:09 0° 307° (NW) 3,029 - -13.1°
Reaches altitude 10° 05:31:24 10° 283° (WNW) 2,179 - -12.6°
Maximum altitude 05:33:58 14° 252° (WSW) 1,953 - -12.3°
Exits shadow 05:34:35 14° 244° (WSW) 1,981 7.6 -12.2°
Drops below altitude 10° 05:36:40 10° 221° (SW) 2,292 8.1 -11.8°
Sets 05:40:15 0° 197° (SSW) 3,300 9.1 -11.3°
